Time,TemperatureF,DewpointF,PressureIn,WindDirection,WindDirectionDegrees,WindSpeedMPH,WindSpeedGustMPH,Humidity,HourlyPrecipIn,Conditions,Clouds,dailyrainin,SoftwareType,DateUTC
2013-01-25 00:07:00,26.5,5.0,30.45,East,89,3.0,7.0,40,0.00,,,0.00,weatherlink.com 1.10,2013-01-25 05:07:00,
2013-01-25 00:22:00,26.4,5.0,30.45,ENE,77,3.0,7.0,40,0.00,,,0.00,weatherlink.com 1.10,2013-01-25 05:22:00,
2013-01-25 00:37:00,26.1,5.0,30.46,East,89,2.0,9.0,40,0.00,,,0.00,weatherlink.com 1.10,2013-01-25 05:37:00,
2013-01-25 00:52:00,26.3,5.0,30.44,East,89,3.0,8.0,41,0.00,,,0.00,weatherlink.com 1.10,2013-01-25 05:52:00,
2013-01-25 01:07:00,25.8,5.0,30.44,East,86,4.0,8.0,42,0.00,,,0.00,weatherlink.com 1.10,2013-01-25 06:07:00,
2013-01-25 01:22:00,26.3,6.0,30.44,ENE,68,2.0,6.0,43,0.00,,,0.00,weatherlink.com 1.10,2013-01-25 06:22:00,
2013-01-25 01:37:00,25.6,6.0,30.43,ESE,103,5.0,7.0,43,0.00,,,0.00,weatherlink.com 1.10,2013-01-25 06:37:00,
2013-01-25 01:52:00,26.0,6.0,30.43,East,87,3.0,7.0,43,0.00,,,0.00,weatherlink.com 1.10,2013-01-25 06:52:00,
2013-01-25 02:07:00,25.4,6.0,30.43,ESE,111,8.0,9.0,44,0.00,,,0.00,weatherlink.com 1.10,2013-01-25 07:07:00,
2013-01-25 02:22:00,25.7,6.0,30.43,East,93,5.0,5.0,44,0.00,,,0.00,weatherlink.com 1.10,2013-01-25 07:22:00,
2013-01-25 02:37:00,25.8,7.0,30.42,East,85,3.0,7.0,44,0.00,,,0.00,weatherlink.com 1.10,2013-01-25 07:37:00,
2013-01-25 02:52:00,26.6,6.0,30.42,ESE,116,4.0,5.0,42,0.00,,,0.00,weatherlink.com 1.10,2013-01-25 07:52:00,
2013-01-25 03:07:00,26.1,6.0,30.41,ENE,71,4.0,7.0,43,0.00,,,0.00,weatherlink.com 1.10,2013-01-25 08:07:00,
2013-01-25 03:22:00,26.0,6.0,30.40,East,87,5.0,6.0,43,0.00,,,0.00,weatherlink.com 1.10,2013-01-25 08:22:00,
2013-01-25 03:37:00,25.8,6.0,30.39,East,84,3.0,12.0,43,0.00,,,0.00,weatherlink.com 1.10,2013-01-25 08:37:00,
2013-01-25 03:52:00,25.6,6.0,30.39,ENE,75,2.0,8.0,44,0.00,,,0.00,weatherlink.com 1.10,2013-01-25 08:52:00,
2013-01-25 04:07:00,26.0,7.0,30.38,East,87,3.0,7.0,45,0.00,,,0.00,weatherlink.com 1.10,2013-01-25 09:07:00,
2013-01-25 04:22:00,26.2,8.0,30.36,East,98,4.0,9.0,46,0.00,,,0.00,weatherlink.com 1.10,2013-01-25 09:22:00,
2013-01-25 04:37:00,25.9,7.0,30.36,ESE,103,2.0,8.0,45,0.00,,,0.00,weatherlink.com 1.10,2013-01-25 09:37:00,
2013-01-25 04:52:00,25.8,8.0,30.36,East,83,0.0,6.0,47,0.00,,,0.00,weatherlink.com 1.10,2013-01-25 09:52:00,
2013-01-25 05:07:00,25.8,12.0,30.37,East,101,3.0,3.0,57,0.00,,,0.00,weatherlink.com 1.10,2013-01-25 10:07:00,
2013-01-25 05:22:00,25.3,15.0,30.35,ESE,120,5.0,9.0,64,0.00,,,0.00,weatherlink.com 1.10,2013-01-25 10:22:00,
2013-01-25 05:37:00,24.7,14.0,30.34,ESE,106,7.0,9.0,65,0.00,,,0.00,weatherlink.com 1.10,2013-01-25 10:37:00,
2013-01-25 05:52:00,25.4,17.0,30.35,SSE,153,2.0,4.0,70,0.00,,,0.00,weatherlink.com 1.10,2013-01-25 10:52:00,
2013-01-25 06:09:00,26.3,21.0,30.34,East,101,3.0,4.0,79,0.00,,,0.00,weatherlink.com 1.10,2013-01-25 11:09:00,
2013-01-25 06:23:00,24.7,18.0,30.34,SE,127,3.0,8.0,76,0.00,,,0.00,weatherlink.com 1.10,2013-01-25 11:23:00,
2013-01-25 06:39:00,25.0,20.0,30.34,East,84,2.0,6.0,82,0.00,,,0.00,weatherlink.com 1.10,2013-01-25 11:39:00,
2013-01-25 06:53:00,25.4,20.0,30.33,SE,131,2.0,5.0,80,0.00,,,0.00,weatherlink.com 1.10,2013-01-25 11:53:00,
2013-01-25 07:09:00,24.9,21.0,30.34,ESE,112,0.0,5.0,84,0.00,,,0.00,weatherlink.com 1.10,2013-01-25 12:09:00,
2013-01-25 07:23:00,24.2,19.0,30.34,East,98,1.0,6.0,79,0.00,,,0.00,weatherlink.com 1.10,2013-01-25 12:23:00,
2013-01-25 07:39:00,24.3,19.0,30.34,ESE,111,5.0,8.0,81,0.00,,,0.00,weatherlink.com 1.10,2013-01-25 12:39:00,
2013-01-25 07:53:00,24.5,20.0,30.33,ESE,115,5.0,8.0,83,0.00,,,0.00,weatherlink.com 1.10,2013-01-25 12:53:00,
2013-01-25 08:09:00,24.4,21.0,30.32,East,99,2.0,5.0,86,0.00,,,0.00,weatherlink.com 1.10,2013-01-25 13:09:00,
2013-01-25 08:24:00,24.4,21.0,30.33,ESE,121,1.0,8.0,86,0.00,,,0.00,weatherlink.com 1.10,2013-01-25 13:24:00,
2013-01-25 08:40:00,24.9,22.0,30.30,East,100,4.0,6.0,87,0.00,,,0.00,weatherlink.com 1.10,2013-01-25 13:40:00,
2013-01-25 08:54:00,24.6,22.0,30.30,ESE,113,3.0,11.0,89,0.00,,,0.00,weatherlink.com 1.10,2013-01-25 13:54:00,
2013-01-25 09:09:00,25.4,23.0,30.30,SE,124,1.0,4.0,90,0.00,,,0.00,weatherlink.com 1.10,2013-01-25 14:09:00,
2013-01-25 09:25:00,26.8,24.0,30.29,SE,136,1.0,4.0,90,0.00,,,0.00,weatherlink.com 1.10,2013-01-25 14:25:00,
2013-01-25 09:39:00,26.1,23.0,30.28,East,98,1.0,2.0,87,0.00,,,0.00,weatherlink.com 1.10,2013-01-25 14:39:00,
2013-01-25 09:54:00,26.1,24.0,30.28,ESE,111,0.0,4.0,90,0.00,,,0.00,weatherlink.com 1.10,2013-01-25 14:54:00,
2013-01-25 10:10:00,26.3,24.0,30.27,SE,139,1.0,5.0,90,0.00,,,0.00,weatherlink.com 1.10,2013-01-25 15:10:00,
2013-01-25 10:24:00,26.8,24.0,30.27,East,94,0.0,5.0,89,0.00,,,0.00,weatherlink.com 1.10,2013-01-25 15:24:00,
2013-01-25 10:40:00,27.4,25.0,30.27,SE,134,0.0,4.0,90,0.00,,,0.00,weatherlink.com 1.10,2013-01-25 15:40:00,
2013-01-25 10:56:00,27.9,26.0,30.27,SE,127,4.0,5.0,92,0.00,,,0.00,weatherlink.com 1.10,2013-01-25 15:56:00,
2013-01-25 11:10:00,27.5,25.0,30.27,SE,144,0.0,4.0,91,0.00,,,0.00,weatherlink.com 1.10,2013-01-25 16:10:00,
2013-01-25 11:25:00,28.3,26.0,30.27,SE,137,1.0,6.0,92,0.00,,,0.00,weatherlink.com 1.10,2013-01-25 16:25:00,
2013-01-25 11:39:00,28.8,27.0,30.27,West,269,3.0,4.0,93,0.00,,,0.00,weatherlink.com 1.10,2013-01-25 16:39:00,
2013-01-25 11:55:00,29.0,27.0,30.25,NNW,334,1.0,2.0,93,0.00,,,0.00,weatherlink.com 1.10,2013-01-25 16:55:00,
2013-01-25 12:10:00,29.6,28.0,30.27,NNW,335,4.0,7.0,93,0.00,,,0.00,weatherlink.com 1.10,2013-01-25 17:10:00,
2013-01-25 12:25:00,29.8,28.0,30.25,NNW,335,3.0,8.0,94,0.00,,,0.00,weatherlink.com 1.10,2013-01-25 17:25:00,
2013-01-25 12:40:00,30.3,29.0,30.26,NNW,335,6.0,10.0,93,0.00,,,0.00,weatherlink.com 1.10,2013-01-25 17:40:00,
2013-01-25 12:55:00,30.2,29.0,30.26,NNW,335,1.0,10.0,93,0.00,,,0.00,weatherlink.com 1.10,2013-01-25 17:55:00,
2013-01-25 13:10:00,30.1,28.0,30.26,NNW,334,4.0,11.0,92,0.01,,,0.01,weatherlink.com 1.10,2013-01-25 18:10:00,
2013-01-25 13:25:00,30.2,28.0,30.23,WNW,293,8.0,11.0,92,0.02,,,0.02,weatherlink.com 1.10,2013-01-25 18:25:00,
2013-01-25 13:40:00,30.3,29.0,30.23,WNW,285,6.0,11.0,93,0.04,,,0.04,weatherlink.com 1.10,2013-01-25 18:40:00,
2013-01-25 13:55:00,30.5,29.0,30.23,West,278,8.0,11.0,94,0.06,,,0.06,weatherlink.com 1.10,2013-01-25 18:55:00,
2013-01-25 14:10:00,30.8,29.0,30.23,NNE,30,5.0,8.0,94,0.07,,,0.08,weatherlink.com 1.10,2013-01-25 19:10:00,
2013-01-25 14:25:00,30.9,29.0,30.21,North,8,1.0,9.0,94,0.07,,,0.09,weatherlink.com 1.10,2013-01-25 19:25:00,
2013-01-25 14:40:00,31.3,30.0,30.20,SSW,200,2.0,7.0,95,0.07,,,0.11,weatherlink.com 1.10,2013-01-25 19:40:00,
2013-01-25 14:55:00,31.5,30.0,30.21,SSW,200,4.0,8.0,95,0.07,,,0.13,weatherlink.com 1.10,2013-01-25 19:55:00,
2013-01-25 15:10:00,31.8,31.0,30.21,SSW,200,5.0,9.0,95,0.06,,,0.14,weatherlink.com 1.10,2013-01-25 20:10:00,
2013-01-25 15:25:00,32.0,31.0,30.20,SSW,200,5.0,9.0,95,0.07,,,0.16,weatherlink.com 1.10,2013-01-25 20:25:00,
2013-01-25 15:40:00,32.3,31.0,30.20,SSW,200,5.0,8.0,95,0.06,,,0.17,weatherlink.com 1.10,2013-01-25 20:40:00,
2013-01-25 15:55:00,32.5,31.0,30.20,SSW,200,6.0,11.0,95,0.05,,,0.18,weatherlink.com 1.10,2013-01-25 20:55:00,
2013-01-25 16:10:00,32.5,32.0,30.21,SSW,200,7.0,9.0,96,0.04,,,0.18,weatherlink.com 1.10,2013-01-25 21:10:00,
2013-01-25 16:25:00,32.5,32.0,30.22,SSW,200,6.0,11.0,96,0.02,,,0.18,weatherlink.com 1.10,2013-01-25 21:25:00,
2013-01-25 16:40:00,32.5,32.0,30.22,SSW,200,7.0,9.0,96,0.01,,,0.18,weatherlink.com 1.10,2013-01-25 21:40:00,
2013-01-25 16:55:00,32.5,32.0,30.23,SSW,200,5.0,11.0,96,0.00,,,0.18,weatherlink.com 1.10,2013-01-25 21:55:00,
2013-01-25 17:10:00,32.5,32.0,30.23,SSW,200,5.0,11.0,96,0.00,,,0.18,weatherlink.com 1.10,2013-01-25 22:10:00,
2013-01-25 17:25:00,32.5,32.0,30.23,SSW,200,7.0,10.0,96,0.00,,,0.18,weatherlink.com 1.10,2013-01-25 22:25:00,
2013-01-25 17:40:00,32.5,32.0,30.23,SSW,200,4.0,12.0,96,0.01,,,0.19,weatherlink.com 1.10,2013-01-25 22:40:00,
2013-01-25 17:55:00,32.6,32.0,30.23,SSW,200,7.0,10.0,96,0.01,,,0.19,weatherlink.com 1.10,2013-01-25 22:55:00,
2013-01-25 18:10:00,32.8,32.0,30.23,SSW,200,8.0,12.0,96,0.01,,,0.19,weatherlink.com 1.10,2013-01-25 23:10:00,
2013-01-25 18:25:00,32.7,32.0,30.24,SSW,200,6.0,10.0,96,0.01,,,0.19,weatherlink.com 1.10,2013-01-25 23:25:00,
2013-01-25 18:40:00,32.5,32.0,30.24,SSW,200,6.0,8.0,96,0.00,,,0.19,weatherlink.com 1.10,2013-01-25 23:40:00,
2013-01-25 18:55:00,32.5,32.0,30.24,SSW,200,5.0,10.0,96,0.00,,,0.19,weatherlink.com 1.10,2013-01-25 23:55:00,
2013-01-25 19:10:00,32.5,32.0,30.24,SSW,200,6.0,8.0,96,0.00,,,0.19,weatherlink.com 1.10,2013-01-26 00:10:00,
2013-01-25 19:25:00,32.6,32.0,30.25,SSW,200,7.0,9.0,96,0.00,,,0.19,weatherlink.com 1.10,2013-01-26 00:25:00,
2013-01-25 19:40:00,32.7,32.0,30.25,SSW,200,6.0,10.0,97,0.00,,,0.19,weatherlink.com 1.10,2013-01-26 00:40:00,
2013-01-25 19:55:00,32.7,32.0,30.26,SSW,200,6.0,8.0,97,0.00,,,0.19,weatherlink.com 1.10,2013-01-26 00:55:00,
2013-01-25 20:10:00,32.6,32.0,30.26,SSW,200,5.0,8.0,97,0.00,,,0.19,weatherlink.com 1.10,2013-01-26 01:10:00,
2013-01-25 20:25:00,32.7,32.0,30.26,SSW,200,5.0,8.0,97,0.00,,,0.19,weatherlink.com 1.10,2013-01-26 01:25:00,
2013-01-25 20:40:00,32.6,32.0,30.26,SSW,200,6.0,6.0,97,0.00,,,0.19,weatherlink.com 1.10,2013-01-26 01:40:00,
2013-01-25 20:55:00,32.7,32.0,30.27,SSW,200,4.0,8.0,97,0.00,,,0.19,weatherlink.com 1.10,2013-01-26 01:55:00,
2013-01-25 21:10:00,32.8,32.0,30.27,SSW,200,6.0,7.0,97,0.00,,,0.19,weatherlink.com 1.10,2013-01-26 02:10:00,
2013-01-25 21:25:00,32.9,32.0,30.27,SSW,200,5.0,7.0,97,0.00,,,0.19,weatherlink.com 1.10,2013-01-26 02:25:00,
2013-01-25 21:40:00,32.8,32.0,30.27,SSW,200,5.0,7.0,97,0.00,,,0.19,weatherlink.com 1.10,2013-01-26 02:40:00,
2013-01-25 21:55:00,32.8,32.0,30.27,SSW,201,4.0,6.0,97,0.00,,,0.19,weatherlink.com 1.10,2013-01-26 02:55:00,
2013-01-25 22:10:00,32.9,32.0,30.27,SSW,201,5.0,7.0,97,0.00,,,0.19,weatherlink.com 1.10,2013-01-26 03:10:00,
2013-01-25 22:25:00,33.0,32.0,30.27,SSW,201,3.0,7.0,97,0.00,,,0.19,weatherlink.com 1.10,2013-01-26 03:25:00,
2013-01-25 22:40:00,33.1,32.0,30.27,SSW,201,5.0,8.0,97,0.00,,,0.19,weatherlink.com 1.10,2013-01-26 03:40:00,
2013-01-25 22:55:00,33.0,32.0,30.28,SSW,202,4.0,6.0,97,0.00,,,0.19,weatherlink.com 1.10,2013-01-26 03:55:00,
2013-01-25 23:10:00,32.9,32.0,30.28,SSW,202,2.0,5.0,97,0.00,,,0.19,weatherlink.com 1.10,2013-01-26 04:10:00,
2013-01-25 23:25:00,32.9,32.0,30.29,West,271,2.0,3.0,97,0.00,,,0.19,weatherlink.com 1.10,2013-01-26 04:25:00,
2013-01-25 23:40:00,32.9,32.0,30.29,West,281,2.0,3.0,97,0.00,,,0.19,weatherlink.com 1.10,2013-01-26 04:40:00,
2013-01-25 23:55:00,33.0,32.0,30.29,West,275,5.0,5.0,97,0.00,,,0.19,weatherlink.com 1.10,2013-01-26 04:55:00,